Time,TemperatureF,DewpointF,PressureIn,WindDirection,WindDirectionDegrees,WindSpeedMPH,WindSpeedGustMPH,Humidity,HourlyPrecipIn,Conditions,Clouds,dailyrainin,SoftwareType,DateUTC
2013-03-24 00:03:00,30.0,20.0,29.96,North,355,0.0,1.0,65,0.00,,,0.00,,2013-03-24 04:03:00,
2013-03-24 00:23:00,29.0,19.0,29.94,North,355,0.0,3.0,66,0.00,,,0.00,,2013-03-24 04:23:00,
2013-03-24 00:33:00,29.0,19.0,29.94,North,355,0.0,1.0,67,0.00,,,0.00,,2013-03-24 04:33:00,
2013-03-24 00:43:00,29.0,19.0,29.94,North,355,0.0,1.0,67,0.00,,,0.00,,2013-03-24 04:43:00,
2013-03-24 00:53:00,28.0,18.0,29.91,ENE,60,0.0,3.0,67,0.00,,,0.00,,2013-03-24 04:53:00,
2013-03-24 01:02:00,28.0,18.0,29.91,ENE,60,0.0,3.0,67,0.00,,,0.00,,2013-03-24 05:02:00,
2013-03-24 01:12:00,28.0,18.0,29.91,ENE,60,0.0,3.0,67,0.00,,,0.00,,2013-03-24 05:12:00,
2013-03-24 01:23:00,28.0,19.0,29.90,ENE,75,0.0,1.0,69,0.00,,,0.00,,2013-03-24 05:23:00,
2013-03-24 01:32:00,28.0,19.0,29.90,ENE,75,0.0,2.0,69,0.00,,,0.00,,2013-03-24 05:32:00,
2013-03-24 01:43:00,28.0,19.0,29.90,ENE,75,0.0,2.0,69,0.00,,,0.00,,2013-03-24 05:43:00,
2013-03-24 01:52:00,28.0,20.0,29.89,ENE,74,0.0,3.0,70,0.00,,,0.00,,2013-03-24 05:52:00,
2013-03-24 02:02:00,27.0,19.0,29.91,ENE,74,0.0,1.0,70,0.00,,,0.00,,2013-03-24 06:02:00,
2013-03-24 02:12:00,27.0,19.0,29.91,ENE,74,0.0,1.0,70,0.00,,,0.00,,2013-03-24 06:12:00,
2013-03-24 02:22:00,27.0,19.0,29.91,ENE,74,0.0,2.0,70,0.00,,,0.00,,2013-03-24 06:22:00,
2013-03-24 02:32:00,27.0,19.0,29.91,ENE,74,0.0,0.0,71,0.00,,,0.00,,2013-03-24 06:32:00,
2013-03-24 02:42:00,27.0,19.0,29.91,ENE,74,0.0,0.0,71,0.00,,,0.00,,2013-03-24 06:42:00,
2013-03-24 02:52:00,27.0,19.0,29.90,ENE,74,0.0,0.0,71,0.00,,,0.00,,2013-03-24 06:52:00,
2013-03-24 03:02:00,27.0,19.0,29.90,ENE,74,0.0,0.0,71,0.00,,,0.00,,2013-03-24 07:02:00,
2013-03-24 03:12:00,27.0,19.0,29.90,ENE,74,0.0,0.0,71,0.00,,,0.00,,2013-03-24 07:12:00,
2013-03-24 03:22:00,26.0,18.0,29.90,ENE,74,0.0,0.0,72,0.00,,,0.00,,2013-03-24 07:22:00,
2013-03-24 03:32:00,26.0,19.0,29.90,ENE,74,0.0,1.0,73,0.00,,,0.00,,2013-03-24 07:32:00,
2013-03-24 03:42:00,26.0,19.0,29.90,ENE,74,0.0,1.0,73,0.00,,,0.00,,2013-03-24 07:42:00,
2013-03-24 03:52:00,26.0,19.0,29.89,ENE,74,0.0,2.0,74,0.00,,,0.00,,2013-03-24 07:52:00,
2013-03-24 04:03:00,26.0,19.0,29.89,ENE,74,0.0,1.0,73,0.00,,,0.00,,2013-03-24 08:03:00,
2013-03-24 04:12:00,26.0,19.0,29.89,ENE,74,0.0,1.0,73,0.00,,,0.00,,2013-03-24 08:12:00,
2013-03-24 04:22:00,26.0,19.0,29.89,ENE,74,0.0,2.0,74,0.00,,,0.00,,2013-03-24 08:22:00,
2013-03-24 04:32:00,26.0,19.0,29.89,ENE,74,0.0,1.0,74,0.00,,,0.00,,2013-03-24 08:32:00,
2013-03-24 04:42:00,26.0,19.0,29.89,ENE,74,0.0,1.0,74,0.00,,,0.00,,2013-03-24 08:42:00,
2013-03-24 04:52:00,26.0,19.0,29.89,ENE,74,0.0,1.0,74,0.00,,,0.00,,2013-03-24 08:52:00,
2013-03-24 05:02:00,25.0,18.0,29.90,ENE,74,0.0,1.0,75,0.00,,,0.00,,2013-03-24 09:02:00,
2013-03-24 05:12:00,25.0,18.0,29.90,ENE,74,0.0,1.0,75,0.00,,,0.00,,2013-03-24 09:12:00,
2013-03-24 05:22:00,25.0,18.0,29.89,ENE,74,0.0,2.0,75,0.00,,,0.00,,2013-03-24 09:22:00,
2013-03-24 05:33:00,25.0,18.0,29.89,ENE,74,0.0,0.0,75,0.00,,,0.00,,2013-03-24 09:33:00,
2013-03-24 05:42:00,25.0,18.0,29.89,ENE,74,0.0,0.0,75,0.00,,,0.00,,2013-03-24 09:42:00,
2013-03-24 05:53:00,25.0,19.0,29.89,ENE,74,0.0,0.0,76,0.00,,,0.00,,2013-03-24 09:53:00,
2013-03-24 06:03:00,25.0,19.0,29.88,ENE,74,0.0,0.0,76,0.00,,,0.00,,2013-03-24 10:03:00,
2013-03-24 06:12:00,25.0,19.0,29.88,ENE,74,0.0,0.0,76,0.00,,,0.00,,2013-03-24 10:12:00,
2013-03-24 06:23:00,25.0,19.0,29.88,ENE,74,0.0,1.0,77,0.00,,,0.00,,2013-03-24 10:23:00,
2013-03-24 06:33:00,25.0,19.0,29.88,ENE,74,0.0,1.0,77,0.00,,,0.00,,2013-03-24 10:33:00,
2013-03-24 06:42:00,25.0,19.0,29.88,ENE,74,0.0,1.0,77,0.00,,,0.00,,2013-03-24 10:42:00,
2013-03-24 06:52:00,25.0,19.0,29.88,ENE,74,0.0,2.0,77,0.00,,,0.00,,2013-03-24 10:52:00,
2013-03-24 07:03:00,25.0,19.0,29.88,ENE,74,0.0,2.0,77,0.00,,,0.00,,2013-03-24 11:03:00,
2013-03-24 07:12:00,25.0,19.0,29.88,ENE,74,0.0,2.0,77,0.00,,,0.00,,2013-03-24 11:12:00,
2013-03-24 07:22:00,25.0,19.0,29.88,ENE,74,0.0,2.0,78,0.00,,,0.00,,2013-03-24 11:22:00,
2013-03-24 07:33:00,25.0,19.0,29.88,ENE,74,0.0,2.0,78,0.00,,,0.00,,2013-03-24 11:33:00,
2013-03-24 07:42:00,25.0,19.0,29.88,ENE,74,0.0,2.0,78,0.00,,,0.00,,2013-03-24 11:42:00,
2013-03-24 07:52:00,25.0,19.0,29.88,ENE,74,1.0,3.0,78,0.00,,,0.00,,2013-03-24 11:52:00,
2013-03-24 08:03:00,25.0,19.0,29.88,ENE,74,0.0,3.0,79,0.00,,,0.00,,2013-03-24 12:03:00,
2013-03-24 08:12:00,25.0,19.0,29.88,ENE,74,0.0,3.0,79,0.00,,,0.00,,2013-03-24 12:12:00,
2013-03-24 08:22:00,25.0,19.0,29.88,ENE,74,0.0,3.0,79,0.00,,,0.00,,2013-03-24 12:22:00,
2013-03-24 08:32:00,25.0,19.0,29.88,ENE,74,0.0,3.0,79,0.00,,,0.00,,2013-03-24 12:32:00,
2013-03-24 08:42:00,25.0,19.0,29.88,ENE,74,0.0,3.0,79,0.00,,,0.00,,2013-03-24 12:42:00,
2013-03-24 08:52:00,26.0,20.0,29.86,East,87,2.0,4.0,79,0.00,,,0.00,,2013-03-24 12:52:00,
2013-03-24 09:02:00,26.0,20.0,29.86,East,87,2.0,4.0,79,0.00,,,0.00,,2013-03-24 13:02:00,
2013-03-24 09:13:00,26.0,20.0,29.86,East,87,2.0,4.0,79,0.00,,,0.00,,2013-03-24 13:13:00,
2013-03-24 09:22:00,27.0,21.0,29.86,East,80,1.0,3.0,78,0.00,,,0.00,,2013-03-24 13:22:00,
2013-03-24 09:32:00,27.0,21.0,29.86,East,80,1.0,3.0,78,0.00,,,0.00,,2013-03-24 13:32:00,
2013-03-24 09:43:00,27.0,21.0,29.86,East,80,1.0,3.0,78,0.00,,,0.00,,2013-03-24 13:43:00,
2013-03-24 09:52:00,28.0,21.0,29.83,ENE,74,3.0,5.0,75,0.00,,,0.00,,2013-03-24 13:52:00,
2013-03-24 10:02:00,28.0,21.0,29.83,ENE,74,3.0,5.0,75,0.00,,,0.00,,2013-03-24 14:02:00,
2013-03-24 10:12:00,28.0,21.0,29.83,ENE,74,3.0,5.0,75,0.00,,,0.00,,2013-03-24 14:12:00,
2013-03-24 10:22:00,29.0,21.0,29.82,East,92,5.0,9.0,71,0.00,,,0.00,,2013-03-24 14:22:00,
2013-03-24 10:32:00,30.0,21.0,29.82,East,87,3.0,7.0,69,0.00,,,0.00,,2013-03-24 14:32:00,
2013-03-24 10:43:00,30.0,21.0,29.82,East,87,3.0,7.0,69,0.00,,,0.00,,2013-03-24 14:43:00,
2013-03-24 10:53:00,31.0,22.0,29.80,East,90,1.0,7.0,68,0.00,,,0.00,,2013-03-24 14:53:00,
2013-03-24 11:02:00,31.0,21.0,29.80,East,79,2.0,5.0,67,0.00,,,0.00,,2013-03-24 15:02:00,
2013-03-24 11:12:00,31.0,21.0,29.80,East,79,2.0,5.0,67,0.00,,,0.00,,2013-03-24 15:12:00,
2013-03-24 11:22:00,32.0,22.0,29.77,ENE,78,4.0,8.0,65,0.00,,,0.00,,2013-03-24 15:22:00,
2013-03-24 11:33:00,33.0,22.0,29.77,East,95,4.0,9.0,63,0.00,,,0.00,,2013-03-24 15:33:00,
2013-03-24 11:43:00,33.0,22.0,29.77,East,95,4.0,9.0,63,0.00,,,0.00,,2013-03-24 15:43:00,
2013-03-24 11:53:00,34.0,22.0,29.74,East,94,4.0,7.0,61,0.00,,,0.00,,2013-03-24 15:53:00,
2013-03-24 12:03:00,34.0,22.0,29.74,East,93,3.0,5.0,60,0.00,,,0.00,,2013-03-24 16:03:00,
2013-03-24 12:13:00,34.0,22.0,29.74,East,93,3.0,5.0,60,0.00,,,0.00,,2013-03-24 16:13:00,
2013-03-24 12:23:00,34.0,20.0,29.72,ENE,68,2.0,6.0,56,0.00,,,0.00,,2013-03-24 16:23:00,
2013-03-24 12:33:00,35.0,21.0,29.72,ESE,105,3.0,7.0,56,0.00,,,0.00,,2013-03-24 16:33:00,
2013-03-24 12:42:00,35.0,21.0,29.72,ESE,105,3.0,7.0,56,0.00,,,0.00,,2013-03-24 16:42:00,
2013-03-24 12:52:00,35.0,20.0,29.70,East,86,2.0,6.0,55,0.00,,,0.00,,2013-03-24 16:52:00,
2013-03-24 13:02:00,36.0,21.0,29.70,ENE,71,2.0,7.0,55,0.00,,,0.00,,2013-03-24 17:02:00,
2013-03-24 13:12:00,36.0,21.0,29.70,ENE,71,2.0,7.0,55,0.00,,,0.00,,2013-03-24 17:12:00,
2013-03-24 13:23:00,36.0,21.0,29.68,ENE,69,4.0,9.0,54,0.00,,,0.00,,2013-03-24 17:23:00,
2013-03-24 13:33:00,37.0,21.0,29.68,East,82,4.0,9.0,53,0.00,,,0.00,,2013-03-24 17:33:00,
2013-03-24 13:42:00,37.0,21.0,29.68,East,82,4.0,9.0,53,0.00,,,0.00,,2013-03-24 17:42:00,
2013-03-24 13:53:00,37.0,21.0,29.66,ENE,65,2.0,6.0,52,0.00,,,0.00,,2013-03-24 17:53:00,
2013-03-24 14:03:00,38.0,22.0,29.66,East,99,3.0,7.0,52,0.00,,,0.00,,2013-03-24 18:03:00,
2013-03-24 14:12:00,38.0,22.0,29.66,East,99,3.0,7.0,52,0.00,,,0.00,,2013-03-24 18:12:00,
2013-03-24 14:22:00,38.0,21.0,29.66,ENE,77,2.0,5.0,49,0.00,,,0.00,,2013-03-24 18:22:00,
2013-03-24 14:32:00,38.0,21.0,29.66,ENE,77,2.0,5.0,49,0.00,,,0.00,,2013-03-24 18:32:00,
2013-03-24 14:43:00,38.0,21.0,29.66,ENE,77,2.0,5.0,49,0.00,,,0.00,,2013-03-24 18:43:00,
2013-03-24 14:52:00,40.0,21.0,29.65,East,86,3.0,7.0,47,0.00,,,0.00,,2013-03-24 18:52:00,
2013-03-24 15:02:00,40.0,22.0,29.65,NE,46,2.0,11.0,48,0.00,,,0.00,,2013-03-24 19:02:00,
2013-03-24 15:12:00,40.0,22.0,29.65,NE,46,2.0,11.0,48,0.00,,,0.00,,2013-03-24 19:12:00,
2013-03-24 15:22:00,41.0,20.0,29.64,ENE,77,4.0,9.0,43,0.00,,,0.00,,2013-03-24 19:22:00,
2013-03-24 15:32:00,41.0,20.0,29.64,East,88,3.0,6.0,43,0.00,,,0.00,,2013-03-24 19:32:00,
2013-03-24 15:43:00,41.0,20.0,29.64,East,88,3.0,6.0,43,0.00,,,0.00,,2013-03-24 19:43:00,
2013-03-24 15:53:00,42.0,21.0,29.62,ENE,69,3.0,9.0,43,0.00,,,0.00,,2013-03-24 19:53:00,
2013-03-24 16:03:00,42.0,21.0,29.62,East,96,1.0,7.0,43,0.00,,,0.00,,2013-03-24 20:03:00,
2013-03-24 16:12:00,42.0,21.0,29.62,East,96,1.0,7.0,43,0.00,,,0.00,,2013-03-24 20:12:00,
2013-03-24 16:22:00,41.0,21.0,29.60,ESE,109,1.0,7.0,44,0.00,,,0.00,,2013-03-24 20:22:00,
2013-03-24 16:32:00,41.0,20.0,29.60,ESE,119,3.0,7.0,43,0.00,,,0.00,,2013-03-24 20:32:00,
2013-03-24 16:42:00,41.0,20.0,29.60,ESE,119,3.0,7.0,43,0.00,,,0.00,,2013-03-24 20:42:00,
2013-03-24 16:53:00,41.0,19.0,29.59,East,96,2.0,6.0,41,0.00,,,0.00,,2013-03-24 20:53:00,
2013-03-24 17:02:00,41.0,19.0,29.59,East,86,4.0,7.0,40,0.00,,,0.00,,2013-03-24 21:02:00,
2013-03-24 17:12:00,41.0,19.0,29.59,East,86,4.0,7.0,40,0.00,,,0.00,,2013-03-24 21:12:00,
2013-03-24 17:22:00,41.0,19.0,29.58,East,81,3.0,7.0,40,0.00,,,0.00,,2013-03-24 21:22:00,
2013-03-24 17:33:00,41.0,19.0,29.58,East,88,3.0,6.0,41,0.00,,,0.00,,2013-03-24 21:33:00,
2013-03-24 17:43:00,41.0,19.0,29.58,East,88,3.0,6.0,41,0.00,,,0.00,,2013-03-24 21:43:00,
2013-03-24 17:53:00,41.0,19.0,29.55,ESE,105,3.0,8.0,41,0.00,,,0.00,,2013-03-24 21:53:00,
2013-03-24 18:03:00,41.0,20.0,29.55,ESE,119,4.0,9.0,42,0.00,,,0.00,,2013-03-24 22:03:00,
2013-03-24 18:13:00,41.0,20.0,29.55,ESE,119,4.0,9.0,42,0.00,,,0.00,,2013-03-24 22:13:00,
2013-03-24 18:23:00,41.0,20.0,29.55,East,99,4.0,7.0,43,0.00,,,0.00,,2013-03-24 22:23:00,
2013-03-24 18:33:00,41.0,20.0,29.55,East,81,3.0,7.0,43,0.00,,,0.00,,2013-03-24 22:33:00,
2013-03-24 18:43:00,41.0,20.0,29.55,East,81,3.0,7.0,43,0.00,,,0.00,,2013-03-24 22:43:00,
2013-03-24 18:53:00,41.0,20.0,29.52,East,80,3.0,9.0,43,0.00,,,0.00,,2013-03-24 22:53:00,
2013-03-24 19:03:00,41.0,20.0,29.52,East,80,3.0,9.0,43,0.00,,,0.00,,2013-03-24 23:03:00,
2013-03-24 19:12:00,41.0,20.0,29.52,East,80,3.0,9.0,43,0.00,,,0.00,,2013-03-24 23:12:00,
2013-03-24 19:22:00,40.0,19.0,29.52,ESE,102,3.0,9.0,43,0.00,,,0.00,,2013-03-24 23:22:00,
2013-03-24 19:32:00,40.0,19.0,29.52,East,93,5.0,13.0,43,0.00,,,0.00,,2013-03-24 23:32:00,
2013-03-24 19:42:00,40.0,19.0,29.52,East,93,5.0,13.0,43,0.00,,,0.00,,2013-03-24 23:42:00,
2013-03-24 19:53:00,40.0,19.0,29.52,East,97,4.0,11.0,43,0.00,,,0.00,,2013-03-24 23:53:00,
2013-03-24 20:02:00,39.0,18.0,29.52,SE,132,6.0,9.0,43,0.00,,,0.00,,2013-03-25 00:02:00,
2013-03-24 20:12:00,39.0,18.0,29.52,SE,132,6.0,9.0,43,0.00,,,0.00,,2013-03-25 00:12:00,
2013-03-24 20:22:00,39.0,19.0,29.52,East,95,4.0,6.0,44,0.00,,,0.00,,2013-03-25 00:22:00,
2013-03-24 20:32:00,39.0,19.0,29.52,East,95,4.0,6.0,44,0.00,,,0.00,,2013-03-25 00:32:00,
2013-03-24 20:42:00,39.0,19.0,29.52,East,95,4.0,6.0,44,0.00,,,0.00,,2013-03-25 00:42:00,
2013-03-24 20:53:00,39.0,20.0,29.52,ESE,119,1.0,7.0,46,0.00,,,0.00,,2013-03-25 00:53:00,
2013-03-24 21:02:00,39.0,20.0,29.52,East,96,5.0,7.0,47,0.00,,,0.00,,2013-03-25 01:02:00,
2013-03-24 21:12:00,39.0,20.0,29.52,East,96,5.0,7.0,47,0.00,,,0.00,,2013-03-25 01:12:00,
2013-03-24 21:22:00,38.0,20.0,29.51,ESE,113,3.0,12.0,48,0.00,,,0.00,,2013-03-25 01:22:00,
2013-03-24 21:32:00,38.0,21.0,29.51,East,88,4.0,12.0,50,0.00,,,0.00,,2013-03-25 01:32:00,
2013-03-24 21:42:00,38.0,21.0,29.51,East,88,4.0,12.0,50,0.00,,,0.00,,2013-03-25 01:42:00,
2013-03-24 21:53:00,37.0,21.0,29.51,East,96,2.0,8.0,53,0.00,,,0.00,,2013-03-25 01:53:00,
2013-03-24 22:02:00,38.0,22.0,29.51,ESE,113,2.0,8.0,51,0.00,,,0.00,,2013-03-25 02:02:00,
2013-03-24 22:12:00,38.0,22.0,29.51,ESE,113,2.0,8.0,51,0.00,,,0.00,,2013-03-25 02:12:00,
2013-03-24 22:22:00,37.0,22.0,29.50,ESE,104,3.0,12.0,54,0.00,,,0.00,,2013-03-25 02:22:00,
2013-03-24 22:33:00,36.0,23.0,29.50,SSE,165,5.0,9.0,60,0.00,,,0.00,,2013-03-25 02:33:00,
2013-03-24 22:42:00,36.0,23.0,29.50,SSE,165,5.0,9.0,60,0.00,,,0.00,,2013-03-25 02:42:00,
2013-03-24 22:52:00,35.0,24.0,29.51,East,87,4.0,7.0,64,0.00,,,0.00,,2013-03-25 02:52:00,
2013-03-24 23:03:00,36.0,24.0,29.51,East,96,1.0,6.0,62,0.00,,,0.00,,2013-03-25 03:03:00,
2013-03-24 23:13:00,36.0,24.0,29.51,East,96,1.0,6.0,62,0.00,,,0.00,,2013-03-25 03:13:00,
2013-03-24 23:23:00,36.0,24.0,29.50,ESE,112,3.0,7.0,61,0.00,,,0.00,,2013-03-25 03:23:00,
2013-03-24 23:33:00,36.0,24.0,29.50,ESE,112,3.0,7.0,61,0.00,,,0.00,,2013-03-25 03:33:00,
2013-03-24 23:43:00,35.0,26.0,29.49,ESE,103,7.0,13.0,68,0.00,,,0.00,,2013-03-25 03:43:00,
2013-03-24 23:53:00,35.0,26.0,29.49,ESE,103,7.0,13.0,68,0.00,,,0.00,,2013-03-25 03:53:00,